#�ϑ�����,���ϕ���,���ϕ���,�ő啗��,�ő啗����������,�ő�u�ԕ���,�ő�u�ԕ�����������
#(�N����),(m/s)   ,(16����),(m/s)   ,(16����)        ,(m/s)       ,(16����)            
2015/11/19 0:01,11.3,16,11.5,16,20.5,16
2015/11/19 0:02,11.2,16,11.3,16,18.9,15
2015/11/19 0:03,11.3,16,11.3,16,24.3,16
2015/11/19 0:04,11,16,11.4,16,20.9,1
2015/11/19 0:05,11.1,16,11.2,16,18.7,16
2015/11/19 0:06,11,16,11.1,16,17.4,2
2015/11/19 0:07,11.1,16,11.1,16,21.2,16
2015/11/19 0:08,11,16,11.2,16,21.9,16
2015/11/19 0:09,11.1,16,11.2,16,20.1,15
2015/11/19 0:10,11.3,16,11.3,16,29.6,1
2015/11/19 0:11,11.3,16,11.4,16,21.8,1
2015/11/19 0:12,11.4,16,11.5,16,18.7,16
2015/11/19 0:13,11.4,16,11.4,16,21,15
2015/11/19 0:14,11.9,16,11.9,16,20.2,16
2015/11/19 0:15,12,16,12,16,21.5,16
2015/11/19 0:16,12.2,16,12.3,16,20.4,1
2015/11/19 0:17,12,16,12.2,16,21.8,15
2015/11/19 0:18,12.1,16,12.1,16,21.2,14
2015/11/19 0:19,12.1,16,12.1,16,19.4,15
2015/11/19 0:20,11.5,16,12.1,16,17,16
2015/11/19 0:21,11.6,16,11.6,16,18.4,15
2015/11/19 0:22,11.2,16,11.6,16,14.9,16
2015/11/19 0:23,11,16,11.3,16,21.3,16
2015/11/19 0:24,10.4,16,11,16,19.7,15
2015/11/19 0:25,10.2,16,10.4,16,17.1,16
2015/11/19 0:26,9.8,16,10.1,16,19.3,15
2015/11/19 0:27,10,16,10,16,19.4,16
2015/11/19 0:28,10,16,10,16,19.7,16
2015/11/19 0:29,9.7,16,10.1,16,18,2
2015/11/19 0:30,9.4,16,9.6,16,10.9,15
2015/11/19 0:31,9.1,16,9.3,16,14.9,16
2015/11/19 0:32,9,16,9,16,11.5,15
2015/11/19 0:33,8.5,16,8.9,16,12.6,16
2015/11/19 0:34,8,16,8.4,16,12.8,15
2015/11/19 0:35,7.4,16,8,16,6.7,15
2015/11/19 0:36,6.7,16,7.4,16,3.8,15
2015/11/19 0:37,5.9,16,6.7,16,5.5,15
2015/11/19 0:38,5.2,16,5.7,16,8.4,13
2015/11/19 0:39,4.8,16,5,16,10.7,1
2015/11/19 0:40,4.9,16,5,16,11.3,16
2015/11/19 0:41,4.5,16,5,16,11.8,1
2015/11/19 0:42,4.1,16,4.4,16,7.9,1
2015/11/19 0:43,4,16,4.2,16,8.6,16
2015/11/19 0:44,4.2,16,4.2,16,11.6,1
2015/11/19 0:45,4.4,16,4.4,16,11.8,2
2015/11/19 0:46,4.9,16,4.9,16,14.2,15
2015/11/19 0:47,5.1,16,5.1,16,10.8,16
2015/11/19 0:48,5.2,16,5.2,16,9.7,2
2015/11/19 0:49,5.2,16,5.3,16,9.1,15
2015/11/19 0:50,4.9,16,5.2,16,6.7,1
2015/11/19 0:51,4.9,16,4.9,16,10.7,2
2015/11/19 0:52,4.9,1,4.9,16,8.9,3
2015/11/19 0:53,5.1,1,5.1,16,10.9,16
2015/11/19 0:54,4.9,1,5.1,16,11.6,16
2015/11/19 0:55,4.9,1,5.1,16,12.4,16
2015/11/19 0:56,4.7,1,4.9,16,9.1,2
2015/11/19 0:57,4.6,1,4.7,16,10.2,16
2015/11/19 0:58,4.7,1,4.7,16,13.8,3
2015/11/19 0:59,4.7,1,4.7,16,9.8,1
2015/11/19 1:00,5,1,5,1,10.2,15
2015/11/19 1:01,4.9,1,5.1,1,10,14
2015/11/19 1:02,4.9,1,5,1,5.5,3
2015/11/19 1:03,4.6,1,4.9,1,9.1,1
2015/11/19 1:04,4.6,1,4.6,16,8.6,3
2015/11/19 1:05,4.7,1,4.7,1,12.3,3
2015/11/19 1:06,4.9,1,4.9,1,11.3,3
2015/11/19 1:07,5.4,1,5.4,1,14.4,16
2015/11/19 1:08,5.3,1,5.4,1,10.8,16
2015/11/19 1:09,5.5,1,5.5,1,12.6,1
2015/11/19 1:10,5.4,1,5.6,1,12.8,1
2015/11/19 1:11,5.5,1,5.5,1,9.8,16
2015/11/19 1:12,5.7,1,5.7,1,8.6,16
2015/11/19 1:13,5.9,1,5.9,1,10.6,1
2015/11/19 1:14,6.3,1,6.3,1,13.1,16
2015/11/19 1:15,5.9,16,6.3,1,10.8,1
2015/11/19 1:16,5.8,16,5.8,1,10.2,16
2015/11/19 1:17,5.6,16,5.7,1,13,1
2015/11/19 1:18,6,16,6,1,11.3,2
2015/11/19 1:19,5.8,16,6,1,13.3,1
2015/11/19 1:20,5.7,16,5.9,1,8.9,2
2015/11/19 1:21,5.7,16,5.8,1,10,1
2015/11/19 1:22,5.6,16,5.7,1,6.8,2
2015/11/19 1:23,5.4,16,5.7,1,10.2,2
2015/11/19 1:24,5.4,16,5.4,1,14.8,16
2015/11/19 1:25,5.6,16,5.6,16,10.8,15
2015/11/19 1:26,5.8,1,5.8,16,12.3,2
2015/11/19 1:27,5.7,1,5.9,16,12.6,1
2015/11/19 1:28,5.4,1,5.7,16,6.3,2
2015/11/19 1:29,5,16,5.3,16,6,2
2015/11/19 1:30,4.9,16,5,1,5.6,14
2015/11/19 1:31,4.7,1,4.9,1,5.2,1
2015/11/19 1:32,4.5,1,4.7,1,5.1,1
2015/11/19 1:33,4.6,1,4.6,1,9.1,16
2015/11/19 1:34,4.1,1,4.5,1,6.2,16
2015/11/19 1:35,3.8,1,4,1,6.2,16
2015/11/19 1:36,3.7,1,3.9,1,11.1,1
2015/11/19 1:37,3.3,1,3.6,1,7.1,1
2015/11/19 1:38,3,1,3.2,1,1.8,3
2015/11/19 1:39,2.9,1,3,16,3.1,1
2015/11/19 1:40,3,2,3,16,9.8,3
2015/11/19 1:41,3.1,2,3.1,1,7.5,4
2015/11/19 1:42,3.2,1,3.2,1,4.4,13
2015/11/19 1:43,2.9,1,3.2,1,3.8,2
2015/11/19 1:44,2.9,2,3,1,3.9,4
2015/11/19 1:45,2.9,2,2.9,1,5.1,2
2015/11/19 1:46,2.7,2,2.9,1,7.5,15
2015/11/19 1:47,2.9,2,2.9,1,9.9,3
2015/11/19 1:48,3.1,2,3.1,1,6.1,16
2015/11/19 1:49,3,2,3.1,1,2.4,3
2015/11/19 1:50,2.8,2,3,1,5.2,16
2015/11/19 1:51,2.8,1,2.8,1,6.4,16
2015/11/19 1:52,2.8,2,2.8,1,3.9,2
2015/11/19 1:53,2.7,2,2.8,2,3.2,2
2015/11/19 1:54,2.8,2,2.8,2,4.9,2
2015/11/19 1:55,2.9,2,2.9,2,9.7,2
2015/11/19 1:56,3.1,2,3.1,2,9.8,2
2015/11/19 1:57,3.2,2,3.2,2,7.4,4
2015/11/19 1:58,3.1,2,3.2,2,4.4,3
2015/11/19 1:59,3.1,2,3.1,2,1.3,3
2015/11/19 2:00,3,2,3,2,3.1,11
2015/11/19 2:01,2.8,2,2.9,2,3.6,9
2015/11/19 2:02,2.8,4,2.8,2,3.1,8
2015/11/19 2:03,2.8,5,2.8,2,4.2,7
2015/11/19 2:04,2.9,6,2.9,2,4.8,6
2015/11/19 2:05,2.6,7,2.9,2,3.8,7
2015/11/19 2:06,2.4,7,2.6,2,3.3,7
2015/11/19 2:07,2,8,2.4,2,3.9,10
2015/11/19 2:08,1.9,9,2,2,3.1,9
2015/11/19 2:09,2.1,9,2.1,2,2.4,12
2015/11/19 2:10,2.1,8,2.1,2,5.6,1
2015/11/19 2:11,2.2,7,2.3,5,6.2,1
2015/11/19 2:12,2.4,6,2.4,5,6.8,5
2015/11/19 2:13,2.5,6,2.5,5,4.9,7
2015/11/19 2:14,2.4,6,2.5,6,4.2,8
2015/11/19 2:15,2.3,7,2.3,7,4.5,8
2015/11/19 2:16,2.3,7,2.3,6,3.1,9
2015/11/19 2:17,2.2,7,2.3,6,2.6,8
2015/11/19 2:18,2.3,6,2.3,6,3.5,6
2015/11/19 2:19,2.2,6,2.3,6,2.1,1
2015/11/19 2:20,2.4,6,2.5,6,8.9,4
2015/11/19 2:21,2.5,7,2.5,6,7.4,3
2015/11/19 2:22,2.4,7,2.5,6,5.1,2
2015/11/19 2:23,2.3,7,2.4,6,3,13
2015/11/19 2:24,2.1,7,2.3,6,0.8,15
2015/11/19 2:25,2.1,5,2.1,6,3.3,5
2015/11/19 2:26,2.1,3,2.1,6,6.3,4
2015/11/19 2:27,2.1,3,2.1,6,3.3,13
2015/11/19 2:28,2.1,3,2.1,6,3.1,8
2015/11/19 2:29,2.1,2,2.1,6,4.4,15
2015/11/19 2:30,2,16,2.2,6,5.6,14
2015/11/19 2:31,1.9,15,2,7,5.4,14
2015/11/19 2:32,1.9,16,1.9,7,3.9,1
2015/11/19 2:33,1.8,1,1.9,7,1.9,5
2015/11/19 2:34,1.9,3,1.9,2,2,4
2015/11/19 2:35,2.2,1,2.2,2,11.4,15
2015/11/19 2:36,2.3,16,2.3,16,5.5,14
2015/11/19 2:37,2.4,16,2.5,16,6.1,15
2015/11/19 2:38,2.5,16,2.5,16,4.2,16
2015/11/19 2:39,2.5,16,2.6,16,5.2,15
2015/11/19 2:40,2.3,16,2.5,16,2,16
2015/11/19 2:41,2.3,16,2.3,16,6.1,15
2015/11/19 2:42,2.4,15,2.4,16,6,16
2015/11/19 2:43,2.7,15,2.7,15,7.5,15
2015/11/19 2:44,2.9,15,2.9,15,7.2,14
2015/11/19 2:45,2.7,15,2.9,15,4.2,13
2015/11/19 2:46,2.6,15,2.7,15,4.5,10
2015/11/19 2:47,2.5,15,2.6,15,3.7,1
2015/11/19 2:48,2.5,15,2.5,15,3.5,1
2015/11/19 2:49,2.4,16,2.5,15,3,16
2015/11/19 2:50,2.7,16,2.7,15,7.9,1
2015/11/19 2:51,2.6,16,2.7,15,5.1,15
2015/11/19 2:52,2.7,16,2.7,15,8.1,2
2015/11/19 2:53,2.8,1,2.8,15,8.4,3
2015/11/19 2:54,2.7,1,2.8,15,12.1,2
2015/11/19 2:55,2.9,2,2.9,2,6.9,6
2015/11/19 2:56,2.9,2,2.9,2,7.1,5
2015/11/19 2:57,3.2,2,3.2,1,8.4,2
2015/11/19 2:58,3.5,2,3.5,2,7.6,2
2015/11/19 2:59,3.7,2,3.7,2,7.1,2
2015/11/19 3:00,3.6,2,3.7,2,3.8,4
2015/11/19 3:01,3.5,2,3.6,2,3.5,4
2015/11/19 3:02,3.3,3,3.5,2,6.3,2
2015/11/19 3:03,3.3,3,3.4,2,9.1,3
2015/11/19 3:04,3.6,3,3.6,2,8.3,3
2015/11/19 3:05,3.5,3,3.6,2,5.5,6
2015/11/19 3:06,3.3,3,3.5,2,3.1,1
2015/11/19 3:07,3,3,3.3,2,3.6,13
2015/11/19 3:08,2.9,2,3,2,5.5,12
2015/11/19 3:09,2.8,3,2.9,2,3.8,12
2015/11/19 3:10,2.5,2,2.7,2,0.9,2
2015/11/19 3:11,2.5,3,2.5,3,4.1,9
2015/11/19 3:12,2.6,13,2.6,3,5.8,13
2015/11/19 3:13,2.6,12,2.6,3,8.6,15
2015/11/19 3:14,2.2,12,2.6,3,5.7,16
2015/11/19 3:15,2.3,11,2.3,3,5,6
2015/11/19 3:16,2.4,11,2.4,3,4.3,4
2015/11/19 3:17,2.4,9,2.4,3,3.3,9
2015/11/19 3:18,2.3,8,2.4,2,2.2,7
2015/11/19 3:19,2.2,7,2.2,3,2.5,3
2015/11/19 3:20,2.3,6,2.3,1,2.6,2
2015/11/19 3:21,2.3,5,2.4,1,4.7,4
2015/11/19 3:22,2.5,5,2.5,11,6.9,6
2015/11/19 3:23,3,5,3,5,15.7,5
2015/11/19 3:24,3.4,5,3.4,5,10.9,5
2015/11/19 3:25,3.4,5,3.4,5,4.9,9
2015/11/19 3:26,3.4,5,3.4,5,6.7,2
2015/11/19 3:27,3.4,5,3.4,5,4.3,5
2015/11/19 3:28,3.4,5,3.5,5,4.5,2
2015/11/19 3:29,3.7,5,3.7,5,6.5,3
2015/11/19 3:30,3.6,5,3.7,5,2.5,5
2015/11/19 3:31,3.5,6,3.6,5,1.9,7
2015/11/19 3:32,3.1,6,3.5,5,2,12
2015/11/19 3:33,2.5,6,3.1,5,3.7,7
2015/11/19 3:34,2.2,6,2.4,5,5.6,4
2015/11/19 3:35,2.4,6,2.4,5,9.8,6
2015/11/19 3:36,2.3,6,2.5,5,8.9,8
2015/11/19 3:37,2.2,6,2.3,5,2.6,15
2015/11/19 3:38,2.2,6,2.2,5,3.3,15
2015/11/19 3:39,2,8,2.2,5,2.7,14
2015/11/19 3:40,2.2,10,2.2,5,8.1,14
2015/11/19 3:41,2.5,14,2.5,6,7.5,15
2015/11/19 3:42,2.8,16,2.8,6,6.7,16
2015/11/19 3:43,2.9,16,2.9,16,6.8,2
2015/11/19 3:44,3.3,16,3.3,16,11.5,2
2015/11/19 3:45,3.4,16,3.4,16,9,3
2015/11/19 3:46,3.6,1,3.6,1,7.5,4
2015/11/19 3:47,3.7,1,3.7,1,5,3
2015/11/19 3:48,3.9,2,3.9,2,9.1,4
2015/11/19 3:49,4.1,2,4.1,2,9.3,5
2015/11/19 3:50,3.9,3,4.1,2,3.8,3
2015/11/19 3:51,3.6,3,3.8,2,3.1,1
2015/11/19 3:52,3.4,3,3.6,2,2.2,10
2015/11/19 3:53,3.2,3,3.4,2,2.7,12
2015/11/19 3:54,2.6,4,3.1,2,2.6,6
2015/11/19 3:55,2.3,5,2.6,2,4.4,9
2015/11/19 3:56,2,6,2.3,2,3.2,9
2015/11/19 3:57,2,8,2,2,3,8
2015/11/19 3:58,1.7,10,2,2,1.5,9
2015/11/19 3:59,1.5,10,1.6,2,3.2,9
2015/11/19 4:00,1.7,10,1.7,3,5.2,6
2015/11/19 4:01,1.9,10,1.9,3,5.6,6
2015/11/19 4:02,2,10,2,3,3.6,11
2015/11/19 4:03,2,10,2,3,2.4,13
2015/11/19 4:04,1.9,10,2,4,3.2,12
2015/11/19 4:05,1.8,10,1.9,5,3.2,11
2015/11/19 4:06,1.8,10,1.8,6,1.9,4
2015/11/19 4:07,1.9,9,1.9,8,5.8,6
2015/11/19 4:08,2.1,8,2.1,9,5.6,6
2015/11/19 4:09,2.2,6,2.2,7,4.8,5
2015/11/19 4:10,2.1,5,2.2,7,4.2,3
2015/11/19 4:11,2.1,4,2.1,7,4.8,2
2015/11/19 4:12,1.9,4,2.1,7,3,2
2015/11/19 4:13,2,4,2,7,3.7,16
2015/11/19 4:14,2,4,2,7,3.8,16
2015/11/19 4:15,1.9,4,2,7,1.5,15
2015/11/19 4:16,1.9,3,1.9,7,2.2,12
2015/11/19 4:17,1.8,3,2,7,2.7,12
2015/11/19 4:18,1.6,2,1.8,7,2,11
2015/11/19 4:19,1.5,16,1.6,6,2.4,12
2015/11/19 4:20,1.6,14,1.6,4,3.8,12
2015/11/19 4:21,1.5,13,1.6,4,3.3,14
2015/11/19 4:22,1.5,13,1.5,4,1.9,11
2015/11/19 4:23,1.6,12,1.6,4,3.9,10
2015/11/19 4:24,1.8,12,1.8,4,4.4,10
2015/11/19 4:25,2,12,2,3,3.9,10
2015/11/19 4:26,1.9,12,2,3,1.3,13
2015/11/19 4:27,1.9,12,1.9,12,1.5,2
2015/11/19 4:28,2,12,2,12,2.5,4
2015/11/19 4:29,2,11,2,12,2.2,7
2015/11/19 4:30,1.7,11,1.9,12,1.3,8
2015/11/19 4:31,1.6,11,1.7,12,1,11
2015/11/19 4:32,1.7,11,1.7,12,2.4,12
2015/11/19 4:33,1.6,11,1.7,12,2.6,12
2015/11/19 4:34,1.3,11,1.6,12,2.2,12
2015/11/19 4:35,1.2,12,1.3,12,2.4,13
2015/11/19 4:36,1.2,12,1.2,12,1.5,14
2015/11/19 4:37,1.3,12,1.3,12,2.1,16
2015/11/19 4:38,1.1,13,1.2,12,0.8,6
2015/11/19 4:39,1.1,13,1.1,11,3.1,8
2015/11/19 4:40,1.3,12,1.3,11,4.7,9
2015/11/19 4:41,1.4,12,1.4,11,1.9,10
2015/11/19 4:42,1.4,12,1.4,11,2.2,13
2015/11/19 4:43,1.3,12,1.4,11,1.9,13
2015/11/19 4:44,1.2,12,1.3,12,1.3,10
2015/11/19 4:45,1.2,11,1.3,12,2.7,9
2015/11/19 4:46,1.3,10,1.3,12,4.7,9
2015/11/19 4:47,1.4,10,1.4,12,6.1,8
2015/11/19 4:48,1.6,10,1.6,10,5.5,9
2015/11/19 4:49,1.6,10,1.6,10,3.7,9
2015/11/19 4:50,1.4,10,1.5,10,2,13
2015/11/19 4:51,1.7,10,1.7,10,6,11
2015/11/19 4:52,1.6,10,1.7,10,3.7,10
2015/11/19 4:53,1.6,9,1.6,10,2.6,10
2015/11/19 4:54,1.7,9,1.7,10,2.5,10
2015/11/19 4:55,1.7,9,1.7,10,2.5,10
2015/11/19 4:56,1.7,10,1.7,10,3.2,10
2015/11/19 4:57,1.8,10,1.8,10,3.6,10
2015/11/19 4:58,1.8,10,1.8,10,3.3,10
2015/11/19 4:59,1.8,10,1.8,10,2.7,10
2015/11/19 5:00,1.7,10,1.8,10,1.8,11
2015/11/19 5:01,1.4,10,1.7,10,1,7
2015/11/19 5:02,1.5,10,1.5,10,3.2,11
2015/11/19 5:03,1.7,10,1.7,10,4.5,10
2015/11/19 5:04,1.6,10,1.6,10,1.4,13
2015/11/19 5:05,1.6,10,1.6,10,3.2,8
2015/11/19 5:06,1.6,10,1.7,10,3.9,8
2015/11/19 5:07,1.5,10,1.6,10,2.5,9
2015/11/19 5:08,1.4,10,1.4,10,2.5,6
2015/11/19 5:09,1.4,9,1.4,10,2.6,3
2015/11/19 5:10,1.4,8,1.4,10,3.2,4
2015/11/19 5:11,1.4,8,1.4,10,1.6,3
2015/11/19 5:12,1.3,7,1.4,10,0.6,13
2015/11/19 5:13,1.1,6,1.3,10,1.9,12
2015/11/19 5:14,1.1,5,1.1,10,2.6,5
2015/11/19 5:15,1.4,5,1.4,10,6.1,5
2015/11/19 5:16,1.5,5,1.5,10,5.2,8
2015/11/19 5:17,1.5,4,1.5,5,4.1,8
2015/11/19 5:18,1.4,4,1.5,5,1.9,6
2015/11/19 5:19,1.4,6,1.5,5,3.5,8
2015/11/19 5:20,1.4,7,1.4,5,2.7,9
2015/11/19 5:21,1.4,8,1.4,5,1.5,1
2015/11/19 5:22,1.5,3,1.5,5,3.3,16
2015/11/19 5:23,1.7,3,1.7,2,5.7,15
2015/11/19 5:24,1.9,1,1.9,2,6.2,15
2015/11/19 5:25,1.9,1,1.9,2,5.8,4
2015/11/19 5:26,2,1,2,1,6.7,4
2015/11/19 5:27,2.2,2,2.2,2,5.7,5
2015/11/19 5:28,2.1,2,2.2,2,2.5,4
2015/11/19 5:29,2.1,2,2.1,2,2.5,11
2015/11/19 5:30,2.3,2,2.3,2,3.8,9
2015/11/19 5:31,2.5,2,2.5,2,4.7,9
2015/11/19 5:32,2.5,12,2.5,2,3.1,13
2015/11/19 5:33,2.2,7,2.4,2,0.8,5
2015/11/19 5:34,2,8,2.1,2,1.6,16
2015/11/19 5:35,1.6,11,1.9,2,1.9,12
2015/11/19 5:36,1.4,12,1.6,2,3.9,1
2015/11/19 5:37,1.4,13,1.4,2,3.9,16
2015/11/19 5:38,1.6,13,1.6,2,3.3,1
2015/11/19 5:39,1.6,14,1.6,2,2.2,16
2015/11/19 5:40,1.5,15,1.6,2,2.4,16
2015/11/19 5:41,1.4,16,1.5,1,1.8,6
2015/11/19 5:42,1.3,16,1.3,10,2.5,15
2015/11/19 5:43,1.6,16,1.6,7,4.9,16
2015/11/19 5:44,2,16,2,16,7.6,1
2015/11/19 5:45,2.3,1,2.3,1,6.7,1
2015/11/19 5:46,2.7,1,2.7,1,11.3,2
2015/11/19 5:47,3,1,3,1,11.5,2
2015/11/19 5:48,3.1,1,3.1,1,7.4,1
2015/11/19 5:49,3.2,1,3.2,1,4.8,16
2015/11/19 5:50,3.3,1,3.3,1,3.5,16
2015/11/19 5:51,3.4,1,3.4,1,2.4,16
2015/11/19 5:52,3.5,1,3.5,1,3.8,3
2015/11/19 5:53,3.3,2,3.4,1,4.9,7
2015/11/19 5:54,3,2,3.3,1,4.5,4
2015/11/19 5:55,2.9,2,3,1,3.5,7
2015/11/19 5:56,2.6,2,2.9,1,6.1,9
2015/11/19 5:57,2.2,2,2.6,1,5,9
2015/11/19 5:58,2.3,1,2.3,1,5.6,9
2015/11/19 5:59,2.4,8,2.4,1,5.5,9
2015/11/19 6:00,2.5,9,2.5,1,5.2,10
2015/11/19 6:01,2.5,9,2.5,1,3.3,15
2015/11/19 6:02,2.4,10,2.5,1,2.6,13
2015/11/19 6:03,2.3,10,2.4,2,3,3
2015/11/19 6:04,2.4,10,2.4,2,5.5,4
2015/11/19 6:05,2.6,9,2.6,2,6.4,5
2015/11/19 6:06,2.5,8,2.6,2,6.5,4
2015/11/19 6:07,2.5,5,2.5,9,4.3,3
2015/11/19 6:08,2.5,3,2.5,9,5.6,16
2015/11/19 6:09,2.2,2,2.4,9,2,12
2015/11/19 6:10,1.9,2,2.1,9,2,15
2015/11/19 6:11,1.9,2,1.9,9,1.8,14
2015/11/19 6:12,1.9,1,1.9,9,3.7,15
2015/11/19 6:13,2,1,2,9,7.1,16
2015/11/19 6:14,2.1,16,2.1,9,6,15
2015/11/19 6:15,2,15,2.1,9,3.3,14
2015/11/19 6:16,1.8,15,1.9,7,1.9,16
2015/11/19 6:17,1.7,15,1.8,5,1.9,11
2015/11/19 6:18,1.7,14,1.7,3,4.7,10
2015/11/19 6:19,2,14,2,2,5.4,12
2015/11/19 6:20,2.1,13,2.1,1,2.9,12
2015/11/19 6:21,2.3,12,2.3,13,3.2,8
2015/11/19 6:22,2.1,12,2.3,13,1.4,6
2015/11/19 6:23,2.2,11,2.2,13,5.8,4
2015/11/19 6:24,2.4,10,2.4,11,7.9,3
2015/11/19 6:25,2.7,10,2.7,10,8.3,15
2015/11/19 6:26,3,11,3,11,7.8,15
2015/11/19 6:27,3,10,3,11,3.8,4
2015/11/19 6:28,2.7,10,3,11,1.4,10
2015/11/19 6:29,2.4,16,2.7,11,0.5,10
2015/11/19 6:30,2.2,16,2.3,11,0.4,1
2015/11/19 6:31,2,15,2.1,11,0.8,13
2015/11/19 6:32,2,14,2,11,1.6,12
2015/11/19 6:33,1.8,14,2,11,1.6,11
2015/11/19 6:34,1.3,13,1.7,11,1.5,13
2015/11/19 6:35,0.8,12,1.3,11,0.1,6
2015/11/19 6:36,0.5,12,0.8,11,0.4,16
2015/11/19 6:37,0.4,12,0.4,10,0.8,10
2015/11/19 6:38,0.4,12,0.4,10,1.5,9
2015/11/19 6:39,0.5,12,0.5,16,1.5,15
2015/11/19 6:40,0.6,12,0.6,16,2,14
2015/11/19 6:41,0.6,12,0.6,15,1.6,13
2015/11/19 6:42,0.6,12,0.6,14,0.9,4
2015/11/19 6:43,0.6,12,0.6,14,4.1,4
2015/11/19 6:44,0.9,10,0.9,13,5.4,4
2015/11/19 6:45,1,9,1,10,3.6,7
2015/11/19 6:46,1.1,8,1.1,9,2.4,6
2015/11/19 6:47,1.2,5,1.2,7,3.8,16
2015/11/19 6:48,1.3,3,1.3,4,2.2,2
2015/11/19 6:49,1.4,4,1.4,4,2.7,5
2015/11/19 6:50,1.4,4,1.4,4,2.2,13
2015/11/19 6:51,1.4,4,1.4,4,1.8,12
2015/11/19 6:52,1.4,4,1.4,4,1.4,12
2015/11/19 6:53,1.5,5,1.5,5,3.3,12
2015/11/19 6:54,1.3,9,1.5,5,4.5,9
2015/11/19 6:55,1.4,10,1.4,5,3.2,9
2015/11/19 6:56,1.5,10,1.5,5,3.1,8
2015/11/19 6:57,1.5,9,1.5,5,3.8,8
2015/11/19 6:58,1.7,9,1.7,9,4.7,8
2015/11/19 6:59,1.7,9,1.7,9,3.3,8
2015/11/19 7:00,1.7,9,1.8,9,2.6,10
2015/11/19 7:01,1.9,9,1.9,9,5.4,14
2015/11/19 7:02,2.2,10,2.2,10,5.8,15
2015/11/19 7:03,2.5,9,2.5,10,7.7,3
2015/11/19 7:04,2.5,9,2.5,10,4.9,4
2015/11/19 7:05,2.6,8,2.6,8,5.1,5
2015/11/19 7:06,2.7,6,2.7,7,7.2,5
2015/11/19 7:07,2.9,4,2.9,5,6.2,4
2015/11/19 7:08,2.8,3,2.9,5,5.2,5
2015/11/19 7:09,2.7,3,2.8,5,2.5,5
2015/11/19 7:10,2.7,3,2.7,5,1.9,15
2015/11/19 7:11,2.5,3,2.7,5,0.9,3
2015/11/19 7:12,2.2,3,2.4,5,1.1,16
2015/11/19 7:13,1.8,3,2.1,5,0.9,16
2015/11/19 7:14,1.7,3,1.7,5,4.9,9
2015/11/19 7:15,1.7,3,1.8,5,5.7,9
2015/11/19 7:16,1.7,4,1.7,5,5.5,10
2015/11/19 7:17,1.5,7,1.6,4,2.7,7
2015/11/19 7:18,1.4,9,1.4,3,2.1,9
2015/11/19 7:19,1.4,10,1.4,3,3,10
2015/11/19 7:20,1.5,11,1.5,3,2.7,12
2015/11/19 7:21,1.7,11,1.7,3,2.6,15
2015/11/19 7:22,1.8,11,1.8,3,2.2,1
2015/11/19 7:23,1.8,12,1.8,4,2.1,2
2015/11/19 7:24,1.6,12,1.8,4,1.1,10
2015/11/19 7:25,1.4,12,1.6,11,1.3,8
2015/11/19 7:26,1.3,14,1.4,11,5.8,14
2015/11/19 7:27,1.3,14,1.3,11,5.6,14
2015/11/19 7:28,1.3,15,1.3,11,1.9,6
2015/11/19 7:29,1.5,16,1.5,11,7.1,3
2015/11/19 7:30,1.9,1,1.9,16,11.1,1
2015/11/19 7:31,2.1,1,2.1,1,6.1,3
2015/11/19 7:32,2.3,1,2.3,1,5.1,2
2015/11/19 7:33,2.4,2,2.4,2,3.3,2
2015/11/19 7:34,2.4,2,2.4,2,1.5,1
2015/11/19 7:35,2.5,1,2.5,1,1.1,14
2015/11/19 7:36,2.3,2,2.5,1,2.1,1
2015/11/19 7:37,2.2,2,2.3,1,1.4,2
2015/11/19 7:38,2.3,2,2.3,1,3.3,1
2015/11/19 7:39,2.1,2,2.3,1,3,16
2015/11/19 7:40,1.6,2,2,1,2.9,4
2015/11/19 7:41,1.4,2,1.6,1,2.2,2
2015/11/19 7:42,1.3,2,1.4,1,3,6
2015/11/19 7:43,1.4,2,1.4,1,3.5,5
2015/11/19 7:44,1.5,3,1.5,1,2.9,6
2015/11/19 7:45,1.5,3,1.5,1,3.6,7
2015/11/19 7:46,1.5,3,1.5,2,3,2
2015/11/19 7:47,1.6,3,1.6,2,1.6,12
2015/11/19 7:48,1.5,4,1.6,2,2.5,2
2015/11/19 7:49,1.4,4,1.5,2,1.5,5
2015/11/19 7:50,1.4,5,1.4,2,1.1,5
2015/11/19 7:51,1.4,6,1.4,3,4.5,5
2015/11/19 7:52,1.2,6,1.4,3,2.4,4
2015/11/19 7:53,1.1,5,1.2,3,1.8,3
2015/11/19 7:54,0.9,5,1.1,3,0.8,8
2015/11/19 7:55,0.8,5,0.9,3,0.9,12
2015/11/19 7:56,0.8,6,0.8,3,1.6,11
2015/11/19 7:57,0.9,5,0.9,3,3.5,1
2015/11/19 7:58,0.9,4,0.9,4,3.5,1
2015/11/19 7:59,1.1,1,1.1,5,3.2,13
2015/11/19 8:00,1.2,15,1.2,6,3.2,14
2015/11/19 8:01,1.2,15,1.3,6,3.1,15
2015/11/19 8:02,1.3,15,1.3,15,2.7,14
2015/11/19 8:03,1.3,14,1.3,15,2,16
2015/11/19 8:04,1.3,14,1.3,15,2,10
2015/11/19 8:05,1.3,14,1.4,14,0.8,7
2015/11/19 8:06,1.3,14,1.3,14,0.6,16
2015/11/19 8:07,1.2,14,1.3,14,1.1,6
2015/11/19 8:08,1.1,15,1.2,14,1.5,6
2015/11/19 8:09,0.9,16,1.1,14,0.9,3
2015/11/19 8:10,0.8,2,0.9,14,1,6
2015/11/19 8:11,0.7,4,0.8,14,1.4,6
2015/11/19 8:12,0.7,5,0.7,14,1.9,3
2015/11/19 8:13,0.8,5,0.8,14,2.2,5
2015/11/19 8:14,0.9,5,0.9,14,3.3,6
2015/11/19 8:15,1.1,5,1.1,14,3.7,6
2015/11/19 8:16,1.3,5,1.3,14,3,7
2015/11/19 8:17,1.5,6,1.5,6,3.8,8
2015/11/19 8:18,1.6,6,1.6,6,4.5,8
2015/11/19 8:19,1.9,7,1.9,6,5.1,8
2015/11/19 8:20,2.1,7,2.1,7,3.9,8
2015/11/19 8:21,2.2,7,2.2,7,3.7,8
2015/11/19 8:22,2.4,7,2.4,7,4.4,8
2015/11/19 8:23,2.5,7,2.5,7,5.4,8
2015/11/19 8:24,2.5,8,2.6,8,3.5,8
2015/11/19 8:25,2.3,8,2.5,8,2.6,7
2015/11/19 8:26,2.5,8,2.5,8,5.2,6
2015/11/19 8:27,2.6,7,2.6,8,4.7,6
2015/11/19 8:28,2.7,7,2.7,7,4.2,6
2015/11/19 8:29,2.6,7,2.7,7,3.5,7
2015/11/19 8:30,2.5,7,2.6,7,3.5,8
2015/11/19 8:31,2.4,7,2.5,7,2.9,8
2015/11/19 8:32,2.1,7,2.3,7,1.3,8
2015/11/19 8:33,1.8,7,2.1,7,0.5,5
2015/11/19 8:34,1.7,6,1.8,7,1,4
2015/11/19 8:35,1.7,6,1.7,7,1.5,14
2015/11/19 8:36,1.4,7,1.7,7,1.4,15
2015/11/19 8:37,1.3,6,1.4,7,3.7,2
2015/11/19 8:38,1.3,6,1.3,7,4.4,3
2015/11/19 8:39,1.3,4,1.3,7,3.9,3
2015/11/19 8:40,1.2,3,1.3,7,1.4,15
2015/11/19 8:41,1.2,3,1.2,7,1.9,2
2015/11/19 8:42,1.3,2,1.3,7,2.2,2
2015/11/19 8:43,1.4,2,1.4,7,1.9,4
2015/11/19 8:44,1.4,2,1.4,6,1.4,4
2015/11/19 8:45,1.6,2,1.6,6,6.7,2
2015/11/19 8:46,1.9,2,1.9,2,5.8,1
2015/11/19 8:47,1.9,2,1.9,2,5.5,16
2015/11/19 8:48,1.7,2,1.8,2,4.5,1
2015/11/19 8:49,2,2,2,2,6.9,2
2015/11/19 8:50,2.3,2,2.3,2,5.7,2
2015/11/19 8:51,2.4,2,2.4,2,4.2,3
2015/11/19 8:52,2.5,2,2.5,2,3.1,1
2015/11/19 8:53,2.6,2,2.6,2,3.3,3
2015/11/19 8:54,2.7,2,2.7,2,3.6,2
2015/11/19 8:55,2.7,2,2.8,2,3.1,2
2015/11/19 8:56,2.5,2,2.7,2,2.7,5
2015/11/19 8:57,2.5,3,2.5,2,2.7,5
2015/11/19 8:58,2.4,3,2.5,2,2.1,2
2015/11/19 8:59,2.2,3,2.4,2,3.9,4
2015/11/19 9:00,2.1,3,2.2,2,4.5,1
2015/11/19 9:01,2.2,3,2.2,2,6,1
2015/11/19 9:02,2.4,3,2.4,2,7.4,2
2015/11/19 9:03,2.4,3,2.5,2,6.5,1
2015/11/19 9:04,2.5,2,2.5,2,5.6,1
2015/11/19 9:05,2.7,2,2.7,2,7.9,15
2015/11/19 9:06,2.9,2,2.9,2,8.2,16
2015/11/19 9:07,2.9,2,2.9,2,3,2
2015/11/19 9:08,3,2,3,2,2.5,1
2015/11/19 9:09,2.8,1,2.9,2,1.6,3
2015/11/19 9:10,2.6,1,2.8,2,1.8,14
2015/11/19 9:11,2.3,1,2.6,2,1.8,16
2015/11/19 9:12,2.1,1,2.3,2,2.2,16
2015/11/19 9:13,1.8,16,2,2,0.6,15
2015/11/19 9:14,1.6,16,1.8,2,1.4,1
2015/11/19 9:15,1.3,16,1.5,2,1.8,2
2015/11/19 9:16,1,16,1.3,2,2.4,14
2015/11/19 9:17,0.9,16,1,2,1.8,15
2015/11/19 9:18,0.9,15,0.9,2,1.9,14
2015/11/19 9:19,1,15,1,1,3,14
2015/11/19 9:20,1.1,15,1.1,1,2.5,15
2015/11/19 9:21,1.1,15,1.1,1,2.2,16
2015/11/19 9:22,1.1,15,1.1,1,2.1,15
2015/11/19 9:23,1.3,15,1.3,16,3.6,2
2015/11/19 9:24,1.5,15,1.5,16,6.4,16
2015/11/19 9:25,1.7,15,1.7,15,6.9,16
2015/11/19 9:26,1.9,15,1.9,15,6.1,16
2015/11/19 9:27,2.2,15,2.2,15,8.4,15
2015/11/19 9:28,2.3,15,2.3,15,8.4,16
2015/11/19 9:29,2.6,16,2.6,16,8.5,16
2015/11/19 9:30,3,16,3,16,8.2,16
2015/11/19 9:31,3.3,16,3.3,16,6.1,15
2015/11/19 9:32,3.4,16,3.4,16,3.9,16
2015/11/19 9:33,3.4,16,3.5,16,3.3,1
2015/11/19 9:34,3.4,16,3.5,16,6.7,15
2015/11/19 9:35,3.6,16,3.6,16,8.1,16
2015/11/19 9:36,3.6,16,3.7,16,5.8,1
2015/11/19 9:37,3.8,16,3.8,16,7.4,2
2015/11/19 9:38,3.8,16,3.8,16,6.2,3
2015/11/19 9:39,3.4,16,3.8,16,2.5,1
2015/11/19 9:40,3,16,3.3,16,4.4,2
2015/11/19 9:41,2.9,1,3,16,4.3,16
2015/11/19 9:42,3,1,3,16,5.4,1
2015/11/19 9:43,3,1,3.1,16,5,1
2015/11/19 9:44,3,1,3.1,16,5.5,16
2015/11/19 9:45,2.9,1,3,16,6.5,14
2015/11/19 9:46,3,1,3,16,6,15
2015/11/19 9:47,2.8,1,3,16,5.8,16
2015/11/19 9:48,2.9,16,2.9,16,5.4,16
2015/11/19 9:49,3.2,16,3.2,16,5.2,15
2015/11/19 9:50,3.4,16,3.4,16,5.2,16
2015/11/19 9:51,3.2,16,3.4,16,3.2,16
2015/11/19 9:52,3.1,16,3.2,16,2,2
2015/11/19 9:53,2.9,16,3,16,1.9,2
2015/11/19 9:54,2.7,1,2.9,16,1.4,6
2015/11/19 9:55,2.4,1,2.7,16,1.4,8
2015/11/19 9:56,2,2,2.4,16,0.5,6
2015/11/19 9:57,1.7,2,2,16,1.5,1
2015/11/19 9:58,1.5,2,1.7,16,1.9,15
2015/11/19 9:59,1.3,2,1.5,16,4.3,15
2015/11/19 10:00,1.1,2,1.3,16,3.8,1
2015/11/19 10:01,1.1,3,1.1,16,3.1,1
2015/11/19 10:02,1.2,3,1.2,16,4.2,2
2015/11/19 10:03,1.4,3,1.4,16,6.2,1
2015/11/19 10:04,1.6,2,1.6,1,3.9,2
2015/11/19 10:05,1.8,2,1.8,1,4.9,2
2015/11/19 10:06,2,2,2,2,3.7,1
2015/11/19 10:07,2.1,2,2.1,2,3.9,1
2015/11/19 10:08,2.1,2,2.1,2,3.7,16
2015/11/19 10:09,2.2,2,2.2,2,4.5,2
2015/11/19 10:10,2.2,2,2.2,2,3.9,2
2015/11/19 10:11,2.1,2,2.2,2,2.1,15
2015/11/19 10:12,2.1,2,2.1,2,2.1,2
2015/11/19 10:13,1.9,2,2.1,2,3.6,3
2015/11/19 10:14,1.8,1,1.9,2,3,3
2015/11/19 10:15,1.6,1,1.8,2,1.9,16
2015/11/19 10:16,1.6,1,1.6,2,2.5,15
2015/11/19 10:17,1.6,1,1.7,2,3.3,1
2015/11/19 10:18,1.8,16,1.8,2,6.2,15
2015/11/19 10:19,1.9,16,1.9,2,6.5,1
2015/11/19 10:20,1.9,16,1.9,2,4.1,16
2015/11/19 10:21,1.9,16,1.9,2,3.7,15
2015/11/19 10:22,2,16,2,2,3.5,15
2015/11/19 10:23,1.9,16,2,16,2.7,15
2015/11/19 10:24,1.9,16,1.9,16,3.7,16
2015/11/19 10:25,2.1,16,2.1,16,3.6,16
2015/11/19 10:26,2.1,16,2.1,16,3.8,3
2015/11/19 10:27,2.2,16,2.2,16,5.6,4
2015/11/19 10:28,2,1,2.2,16,2.9,4
2015/11/19 10:29,1.8,1,2,16,2.5,5
2015/11/19 10:30,1.8,1,1.8,16,3,16
2015/11/19 10:31,1.8,1,1.8,16,3.1,16
2015/11/19 10:32,1.9,1,2,16,4.1,16
2015/11/19 10:33,2,16,2,16,4.4,15
2015/11/19 10:34,2,16,2,16,2.4,15
2015/11/19 10:35,1.9,16,2,16,2.1,16
2015/11/19 10:36,1.9,16,2,16,3.6,15
2015/11/19 10:37,1.7,15,1.9,16,2.5,16
2015/11/19 10:38,2,15,2,1,6.4,16
2015/11/19 10:39,2.2,15,2.2,15,4.4,1
2015/11/19 10:40,2.2,15,2.3,15,5.8,16
2015/11/19 10:41,2.4,16,2.4,16,5.1,5
2015/11/19 10:42,2.3,16,2.4,16,3.7,6
2015/11/19 10:43,2.2,16,2.3,16,2,8
2015/11/19 10:44,2.1,16,2.2,16,1.3,15
2015/11/19 10:45,2.1,1,2.1,16,2.9,2
2015/11/19 10:46,2.2,2,2.2,16,3.3,3
2015/11/19 10:47,2.4,2,2.4,16,3.7,3
2015/11/19 10:48,2.1,3,2.3,16,4.2,2
2015/11/19 10:49,2,3,2.1,16,3.5,3
2015/11/19 10:50,1.9,3,2,16,2.2,16
2015/11/19 10:51,1.7,3,1.8,16,2.6,2
2015/11/19 10:52,1.7,2,1.7,2,3.7,3
2015/11/19 10:53,1.7,2,1.7,2,1.5,4
2015/11/19 10:54,1.9,2,1.9,2,4.1,14
2015/11/19 10:55,2,2,2,2,3.2,14
2015/11/19 10:56,1.9,1,2,2,4.4,16
2015/11/19 10:57,1.9,1,1.9,2,4.3,1
2015/11/19 10:58,1.8,16,1.9,3,2.5,15
2015/11/19 10:59,1.8,16,1.8,3,3,15
2015/11/19 11:00,1.9,15,1.9,2,2.6,14
2015/11/19 11:01,1.9,15,1.9,2,2.7,16
2015/11/19 11:02,2,15,2,2,6.2,15